Weather in Nikitino

Russia / Orenburg Oblast     51°51′32″N   56°09′16″E
temp.,
°C
wind,
m/s
gust,
m/s
humid.,
%
clouds,
%
prec.,
mm/h
press.,
hPa
HPBL,
m
26 february, fri
fri2623:00−26sse339765 0.0 103366
02:00−24sse4795100 0.0 1031232
05:00−23se4797100 0.2 1029244
08:00−23se599796 0.1 1027254
11:00−20se599697 0.3 1026367
14:00−17se6992100 0.1 1025483
17:00−15se5892100 0.1 1024510
20:00−16se5109492 0.1 1023342
27 february, sat
sat2723:00−17ese5109588 0.1 1021247
02:00−16se7129491 0.1 1018336
05:00−15se8139295 0.1 1015391
08:00−13se81494100 2.0 1010489
11:00−8sse81394100 5.6 1007629
14:00−4sse61096100 1.0 1004480
17:00+1sw49100100 2.4 1003340
20:000wsw5995100 0.1 1002511
28 february, sun
sun2823:000sw5998100 0.7 1002444
02:000wsw5998100 0.6 1001487
05:00−1sw3797100 1.3 1001337
08:00−2sw4897100 0.6 1001305
11:00−1ssw5997100 1.5 1001560
14:00−4wsw6994100 1.6 1002532
17:00−8wsw6892100 2.1 1004517
20:00−13sw349791 0.1 100769
1 march, mon
mon123:00−11sw359696 0.2 1010122
02:00−12sw3596100 0.1 1012122
05:00−13ssw359699 0.4 1013120
08:00−14ssw349693 0.2 101584
11:00−12sw349494 0.4 1016221
14:00−10wsw339098 0.1 1017401
17:00−9w359399 0.3 1018417
20:00−12wnw359694 0.2 102095
2 march, tue
tue223:00−15w349792 0.3 102196
02:00−19wnw339996 0.1 102150
05:00−22w2310094 0.1 102121
08:00−23wsw2210099 0.0 102120
11:00−21sw2399100 0.1 1020165
14:00−18ssw4595100 0.0 1019325
17:00−17ssw5894100 0.0 1017352
20:00−16s51096100 0.1 1015375